Zurück zum Katalog

STARLINK-32518

AktivKommunikationVLEO
NORAD 61967·PAYLOAD·🇺🇸 United States

Gestartet Nov 14, 2024 von Cape Canaveral Space Force Station

Loading…

Nächste Überflüge (nächste 24 Stunden)

TLE

AktuellSource: CelesTrak SupGP

Epoche: Sep 15, 2026, 02:43 UTC

1 61967C 24210J   26258.11368056  .00007927  00000+0  28728-3 0  2583
2 61967  42.9993 183.1655 0001277 271.6443 221.0550 15.27555573    11

Verfolge STARLINK-32518 in Echtzeit mit AllMySat

Download on the App Store